North Myrtle Beach, SC

5:00 PM EDT on June 22, 2017 (GMT -0400)
Grand Strand

Weather History for KCRE - February, 2013

Change the Weather History Date:

Wednesday, February 27, 2013

  Actual Average Record
Temperature  
Mean Temperature 53 °F 50 °F  
Max Temperature 59 °F 60 °F 82 °F (1996)
Min Temperature 47 °F 41 °F 22 °F (1950)
Degree Days  
Heating Degree Days 12 15  
Month to date heating degree days 477 463  
Since 1 July heating degree days 1766 1931  
Cooling Degree Days 0 0  
Month to date cooling degree days 0 0  
Year to date cooling degree days 2 0  
Growing Degree Days 2 (Base 50)    
Moisture  
Dew Point 43 °F    
Average Humidity 67    
Maximum Humidity 87    
Minimum Humidity 47    
Precipitation  
Precipitation 0.00 in 0.12 in 0.72 in (2004)
Month to date precipitation 4.42 3.31  
Year to date precipitation 5.06 7.00  
Sea Level Pressure  
Sea Level Pressure 29.79 in    
Wind  
Wind Speed 10 mph (WSW)    
Max Wind Speed 17 mph    
Max Gust Speed 24 mph    
Visibility 10 miles    
Events      
T = Trace of Precipitation, MM = Missing Value Source: NWS Daily Summary

Daily Weather History Graph

Daily Weather History Graph

Search for Another Location

Airport or City:

Trip Planner

Search our weather history database for the weather conditions in past years. The results will help you decide how hot, cold, wet, or windy it might be!

Date:

Astronomy

Feb. 27, 2013 Rise Set
Actual Time 6:45 AM EST 6:09 PM EST
Civil Twilight 6:20 AM EST 6:35 PM EST
Nautical Twilight 5:51 AM EST 7:04 PM EST
Astronomical Twilight 5:22 AM EST 7:32 PM EST
Moon 8:19 PM EST (2/27) 7:27 AM EST (2/27)
Length of Visible Light 12h 14m
Length of Day
11h 24m
Waning Gibbous, 96% of the Moon is Illuminated
Feb 27
Waning Gibbous
Mar 4
Last Quarter
Mar 11
New
Mar 19
First Quarter
Mar 27
Full

Hourly Weather History & Observations

Time (EST) Temp. Dew Point Humidity Pressure Visibility Wind Dir Wind Speed Gust Speed Precip Events Conditions
12:07 AM 57.2 °F 55.4 °F 94% 29.68 in 10.0 mi NW 4.6 mph - N/A   Partly Cloudy
12:53 AM 57.0 °F 54.0 °F 89% 29.70 in 10.0 mi Variable 6.9 mph - N/A   Partly Cloudy
1:53 AM 54.0 °F 48.9 °F 83% 29.72 in 10.0 mi WNW 9.2 mph - N/A   Clear
2:53 AM 52.0 °F 46.0 °F 80% 29.73 in 10.0 mi West 9.2 mph 18.4 mph N/A   Clear
3:53 AM 50.0 °F 42.1 °F 74% 29.75 in 10.0 mi West 9.2 mph - N/A   Clear
4:53 AM 50.0 °F 41.0 °F 71% 29.77 in 10.0 mi West 10.4 mph 20.7 mph N/A   Clear
5:53 AM 46.9 °F 41.0 °F 80% 29.79 in 10.0 mi SW 10.4 mph - N/A   Clear
6:53 AM 48.0 °F 39.9 °F 74% 29.81 in 10.0 mi WSW 9.2 mph - N/A   Clear
7:53 AM 48.0 °F 37.9 °F 68% 29.83 in 10.0 mi West 9.2 mph 18.4 mph N/A   Clear
8:53 AM 48.9 °F 37.0 °F 64% 29.85 in 10.0 mi West 15.0 mph 23.0 mph N/A   Clear
9:53 AM 51.1 °F 36.0 °F 56% 29.85 in 10.0 mi West 10.4 mph 20.7 mph N/A   Clear
10:53 AM 53.1 °F 37.0 °F 55% 29.86 in 10.0 mi WNW 10.4 mph 17.3 mph N/A   Clear
11:53 AM 55.0 °F 36.0 °F 49% 29.83 in 10.0 mi NW 9.2 mph - N/A   Clear
12:53 PM 57.0 °F 37.0 °F 47% 29.81 in 10.0 mi West 8.1 mph - N/A   Clear
1:53 PM 57.0 °F 41.0 °F 55% 29.81 in 8.0 mi SSW 10.4 mph - N/A   Clear
2:53 PM 55.9 °F 42.1 °F 60% 29.80 in 8.0 mi South 13.8 mph - N/A   Clear
3:53 PM 55.0 °F 45.0 °F 69% 29.80 in 10.0 mi SSW 12.7 mph - N/A   Clear
4:53 PM 54.0 °F 46.0 °F 75% 29.79 in 10.0 mi SSW 13.8 mph - N/A   Clear
5:53 PM 53.1 °F 46.0 °F 77% 29.80 in 10.0 mi SSW 10.4 mph - N/A   Clear
6:53 PM 51.1 °F 46.9 °F 86% 29.80 in 10.0 mi SW 6.9 mph - N/A   Clear
7:53 PM 48.9 °F 42.1 °F 77% 29.80 in 10.0 mi SW 4.6 mph - N/A   Clear
8:53 PM 50.0 °F 44.1 °F 80% 29.81 in 10.0 mi SW 8.1 mph - N/A   Clear
9:53 PM 51.1 °F 42.1 °F 71% 29.80 in 10.0 mi SW 12.7 mph - N/A   Clear
10:53 PM 51.1 °F 41.0 °F 68% 29.80 in 10.0 mi WSW 11.5 mph - N/A   Clear
11:53 PM 50.0 °F 41.0 °F 71% 29.80 in 10.0 mi WSW 9.2 mph - N/A   Clear